DLH8BM KJFK-EDDF

Flight info

Callsign DLH8BM
Flight time N/A
Altitude 37000
Route GREKI DCT JUDDS DCT MARTN DCT EBONY N567B TUDEP/M085F390 DCT 52N050W 54N040W 55N030W 55N020W DCT DOGAL DCT BEXET/N0484F390 DCT MORAG DCT NUCHU L607 KONAN DCT KOK UL607 FERDI DCT REMBA DCT SPI T180 NIVNU T847 IMCOM IMCOM1D
Aircraft A388/J-SADE2E3FGHIJ3J4J5M1RWXY/LB1D1

Departure

Time 2026-05-08 11:26
Airport John F. Kennedy International Airport (KJFK)

Arrival

Time N/A
Airport Frankfurt Main Airport (EDDF)
Time Latitude Longitude Altitude Speed Heading
2026-05-08 10:35 40.64076 -73.78098 29 ft 0 kts 239°
2026-05-08 11:12 40.64078 -73.78094 25 ft 3 kts 240°
2026-05-08 11:13 40.64091 -73.78064 31 ft 4 kts 239°
2026-05-08 11:13 40.64104 -73.78036 31 ft 4 kts 232°
2026-05-08 11:13 40.64119 -73.78020 31 ft 4 kts 196°
2026-05-08 11:13 40.64127 -73.78019 31 ft 4 kts 146°
2026-05-08 11:14 40.64145 -73.78042 31 ft 4 kts 136°
2026-05-08 11:14 40.64163 -73.78060 31 ft 1 kts 151°
2026-05-08 11:14 40.64164 -73.78060 31 ft 1 kts 151°
2026-05-08 11:16 40.64163 -73.78060 31 ft 0 kts 151°
2026-05-08 11:16 40.64143 -73.78045 31 ft 6 kts 151°
2026-05-08 11:16 40.64097 -73.78012 31 ft 0 kts 151°
2026-05-08 11:19 40.64097 -73.78011 31 ft 1 kts 151°
2026-05-08 11:20 40.64079 -73.77998 31 ft 6 kts 151°
2026-05-08 11:20 40.64029 -73.77966 30 ft 10 kts 160°
2026-05-08 11:20 40.63947 -73.77941 28 ft 14 kts 173°
2026-05-08 11:20 40.63843 -73.77924 28 ft 17 kts 173°
2026-05-08 11:21 40.63721 -73.77906 28 ft 19 kts 173°
2026-05-08 11:21 40.63588 -73.77867 28 ft 20 kts 144°
2026-05-08 11:21 40.63512 -73.77751 29 ft 14 kts 152°
2026-05-08 11:21 40.63423 -73.77775 27 ft 14 kts 209°
2026-05-08 11:22 40.63337 -73.77819 27 ft 13 kts 171°
2026-05-08 11:22 40.63280 -73.77745 29 ft 13 kts 119°
2026-05-08 11:22 40.63228 -73.77626 28 ft 17 kts 121°
2026-05-08 11:22 40.63161 -73.77479 27 ft 20 kts 121°
2026-05-08 11:23 40.63089 -73.77320 26 ft 18 kts 121°
2026-05-08 11:23 40.63051 -73.77236 31 ft 9 kts 121°
2026-05-08 11:23 40.63002 -73.77194 26 ft 9 kts 183°
2026-05-08 11:23 40.62964 -73.77210 27 ft 0 kts 209°
2026-05-08 11:25 40.62947 -73.77222 27 ft 7 kts 209°
2026-05-08 11:25 40.62887 -73.77273 28 ft 13 kts 225°
2026-05-08 11:25 40.62890 -73.77378 29 ft 15 kts 298°
2026-05-08 11:25 40.62993 -73.77608 30 ft 62 kts 300°
2026-05-08 11:26 40.63329 -73.78349 31 ft 125 kts 301°
2026-05-08 11:26 40.63862 -73.79510 56 ft 162 kts 302°
2026-05-08 11:26 40.64462 -73.80821 455 ft 174 kts 302°
2026-05-08 11:26 40.65111 -73.82260 733 ft 191 kts 301°
2026-05-08 11:27 40.65833 -73.83868 1072 ft 212 kts 301°
2026-05-08 11:27 40.66860 -73.85348 1562 ft 231 kts 328°
2026-05-08 11:27 40.68406 -73.85903 2336 ft 239 kts 359°
2026-05-08 11:27 40.70039 -73.85352 3167 ft 248 kts 21°
2026-05-08 11:28 40.71586 -73.84252 3908 ft 256 kts 27°
2026-05-08 11:28 40.73135 -73.83029 4691 ft 260 kts 27°
2026-05-08 11:28 40.74701 -73.81837 5467 ft 264 kts 25°
2026-05-08 11:28 40.76331 -73.80665 6241 ft 268 kts 23°
2026-05-08 11:29 40.77991 -73.79516 6994 ft 271 kts 22°
2026-05-08 11:29 40.79679 -73.78365 7768 ft 274 kts 21°
2026-05-08 11:29 40.81387 -73.77207 8552 ft 277 kts 21°
2026-05-08 11:29 40.83118 -73.76034 9324 ft 281 kts 21°
2026-05-08 11:30 40.84844 -73.74863 10063 ft 284 kts 20°
2026-05-08 11:30 40.86651 -73.73641 10432 ft 301 kts 20°
2026-05-08 11:30 40.88591 -73.72332 10607 ft 321 kts 21°
2026-05-08 11:30 40.90639 -73.70943 10885 ft 337 kts 21°
2026-05-08 11:31 40.92713 -73.69524 11455 ft 342 kts 21°
2026-05-08 11:31 40.94846 -73.68060 12060 ft 346 kts 21°
2026-05-08 11:31 40.97000 -73.66584 12653 ft 351 kts 21°
2026-05-08 11:31 40.99188 -73.65086 13265 ft 355 kts 21°
2026-05-08 11:32 41.00652 -73.64085 13638 ft 359 kts 21°
2026-05-08 11:32 41.03608 -73.62061 14420 ft 362 kts 20°
2026-05-08 11:32 41.05875 -73.60510 14921 ft 367 kts 20°
2026-05-08 11:32 41.07391 -73.59471 15305 ft 369 kts 20°
2026-05-08 11:33 41.09689 -73.57895 15832 ft 373 kts 20°
2026-05-08 11:33 41.12011 -73.56301 16364 ft 377 kts 20°
2026-05-08 11:33 41.14364 -73.54685 16881 ft 381 kts 20°
2026-05-08 11:33 41.16734 -73.53056 17388 ft 385 kts 20°
2026-05-08 11:34 41.19101 -73.51427 17884 ft 389 kts 19°
2026-05-08 11:34 41.21518 -73.49764 18021 ft 392 kts 20°
2026-05-08 11:34 41.23937 -73.48094 17993 ft 389 kts 20°
2026-05-08 11:34 41.26311 -73.46453 17992 ft 388 kts 20°
2026-05-08 11:35 41.28712 -73.44793 17996 ft 388 kts 20°
2026-05-08 11:35 41.31119 -73.43131 17996 ft 389 kts 20°
2026-05-08 11:35 41.33521 -73.41470 17994 ft 389 kts 20°
2026-05-08 11:35 41.35896 -73.39826 17991 ft 389 kts 20°
2026-05-08 11:36 41.38301 -73.38161 18096 ft 391 kts 20°
2026-05-08 11:36 41.40730 -73.36478 18538 ft 393 kts 20°
2026-05-08 11:36 41.43169 -73.34786 19034 ft 395 kts 20°
2026-05-08 11:36 41.45587 -73.33106 19473 ft 398 kts 20°
2026-05-08 11:37 41.47975 -73.31106 19898 ft 409 kts 29°
2026-05-08 11:37 41.50177 -73.28597 20317 ft 420 kts 38°
2026-05-08 11:37 41.52220 -73.25821 20722 ft 424 kts 38°
2026-05-08 11:37 41.54316 -73.23020 21117 ft 427 kts 38°
2026-05-08 11:38 41.56442 -73.20201 21519 ft 430 kts 38°
2026-05-08 11:38 41.58552 -73.17402 21911 ft 434 kts 38°
2026-05-08 11:38 41.60727 -73.14567 22313 ft 433 kts 33°
2026-05-08 11:38 41.63203 -73.12374 22691 ft 420 kts 16°
2026-05-08 11:39 41.65920 -73.11177 23104 ft 405 kts
2026-05-08 11:39 41.68673 -73.11013 23533 ft 389 kts 345°
2026-05-08 11:39 41.71296 -73.11561 23880 ft 384 kts 339°
2026-05-08 11:39 41.73943 -73.12270 24237 ft 386 kts 339°
2026-05-08 11:40 41.76574 -73.12910 24600 ft 390 kts 341°
2026-05-08 11:40 41.79279 -73.13472 24943 ft 394 kts 342°
2026-05-08 11:40 41.82014 -73.13976 25279 ft 398 kts 343°
2026-05-08 11:40 41.84778 -73.14454 25686 ft 400 kts 343°
2026-05-08 11:41 41.87550 -73.14923 26082 ft 403 kts 343°
2026-05-08 11:41 41.90307 -73.15390 26477 ft 405 kts 343°
2026-05-08 11:41 41.93119 -73.15867 26886 ft 408 kts 343°
2026-05-08 11:41 41.95962 -73.16351 27299 ft 411 kts 342°
2026-05-08 11:42 41.98782 -73.16833 27757 ft 414 kts 343°
2026-05-08 11:42 42.01659 -73.17326 28088 ft 419 kts 343°
2026-05-08 11:42 42.04561 -73.17822 28539 ft 421 kts 343°
2026-05-08 11:42 42.07499 -73.18323 28968 ft 424 kts 343°
2026-05-08 11:43 42.10441 -73.18827 29379 ft 428 kts 343°
2026-05-08 11:43 42.13410 -73.19336 29823 ft 431 kts 343°
2026-05-08 11:43 42.16400 -73.19849 30212 ft 434 kts 343°
2026-05-08 11:43 42.19383 -73.20362 30583 ft 437 kts 343°
2026-05-08 11:44 42.22393 -73.20880 30905 ft 441 kts 343°
2026-05-08 11:44 42.25455 -73.21407 31261 ft 443 kts 343°
2026-05-08 11:44 42.28534 -73.21937 31602 ft 447 kts 343°
2026-05-08 11:44 42.31606 -73.22467 31943 ft 450 kts 343°
2026-05-08 11:45 42.34726 -73.23005 32310 ft 453 kts 343°
2026-05-08 11:45 42.37883 -73.23549 32674 ft 457 kts 343°
2026-05-08 11:45 42.41062 -73.24100 32978 ft 462 kts 344°
2026-05-08 11:45 42.44274 -73.24658 33268 ft 466 kts 344°
2026-05-08 11:46 42.47499 -73.25202 33611 ft 471 kts 346°
2026-05-08 11:46 42.50795 -73.25186 33925 ft 489 kts 358°
2026-05-08 11:46 42.54192 -73.24270 34193 ft 506 kts
2026-05-08 11:46 42.57526 -73.22439 34479 ft 523 kts 20°
2026-05-08 11:47 42.60629 -73.19736 34875 ft 535 kts 32°
2026-05-08 11:47 42.63353 -73.16291 35263 ft 545 kts 43°
2026-05-08 11:47 42.65655 -73.12141 35640 ft 552 kts 54°
2026-05-08 11:47 42.67435 -73.07470 36020 ft 557 kts 63°
2026-05-08 11:48 42.68986 -73.02644 36468 ft 556 kts 63°
2026-05-08 11:48 42.70599 -72.97951 36836 ft 555 kts 60°
2026-05-08 11:48 42.72371 -72.93248 36912 ft 558 kts 59°
2026-05-08 11:49 42.76093 -72.84088 36932 ft 552 kts 57°
2026-05-08 11:49 42.79869 -72.75019 36930 ft 553 kts 57°
2026-05-08 11:50 42.83668 -72.65858 36927 ft 553 kts 57°
2026-05-08 11:50 42.87429 -72.56746 36922 ft 554 kts 58°
2026-05-08 11:51 42.91229 -72.47505 36953 ft 557 kts 58°
2026-05-08 11:51 42.94993 -72.38322 36957 ft 558 kts 58°
2026-05-08 11:52 42.98782 -72.29049 36955 ft 557 kts 58°
2026-05-08 11:52 43.02537 -72.19829 36963 ft 557 kts 58°
2026-05-08 11:53 43.06307 -72.10544 36934 ft 556 kts 58°
2026-05-08 11:53 43.10028 -72.01350 37010 ft 558 kts 59°
2026-05-08 11:54 43.13786 -71.92035 36949 ft 553 kts 59°
2026-05-08 11:54 43.17499 -71.82799 36894 ft 552 kts 59°
2026-05-08 11:55 43.21197 -71.73576 36898 ft 553 kts 59°
2026-05-08 11:55 43.24880 -71.64357 36896 ft 553 kts 59°
2026-05-08 11:56 43.28585 -71.55055 36883 ft 554 kts 59°
2026-05-08 11:56 43.32268 -71.45779 36908 ft 557 kts 59°
2026-05-08 11:57 43.35987 -71.36377 36915 ft 558 kts 59°
2026-05-08 11:57 43.39673 -71.27031 36900 ft 558 kts 59°
2026-05-08 11:58 43.43377 -71.17606 36931 ft 558 kts 60°
2026-05-08 11:58 43.47042 -71.08251 36909 ft 556 kts 60°
2026-05-08 11:59 43.52537 -70.94168 36887 ft 560 kts 60°
2026-05-08 11:59 43.56202 -70.84734 36901 ft 554 kts 60°
2026-05-08 12:00 43.59794 -70.75456 36824 ft 550 kts 60°
2026-05-08 12:00 43.63410 -70.66092 36889 ft 553 kts 60°
2026-05-08 12:01 43.67014 -70.56721 36874 ft 552 kts 60°
2026-05-08 12:01 43.70613 -70.47337 36870 ft 552 kts 60°
2026-05-08 12:02 43.74192 -70.37970 36869 ft 551 kts 61°
2026-05-08 12:02 43.77760 -70.28602 36878 ft 551 kts 61°
2026-05-08 12:03 43.81328 -70.19204 36878 ft 551 kts 61°
2026-05-08 12:03 43.84889 -70.09792 36883 ft 551 kts 61°
2026-05-08 12:04 43.88444 -70.00365 36885 ft 551 kts 61°
2026-05-08 12:04 43.91987 -69.90935 36883 ft 551 kts 61°
2026-05-08 12:05 43.95520 -69.81502 36873 ft 551 kts 61°
2026-05-08 12:05 43.99046 -69.72055 36884 ft 550 kts 62°
2026-05-08 12:06 44.02558 -69.62614 36858 ft 550 kts 62°
2026-05-08 12:06 44.06058 -69.53173 36859 ft 549 kts 62°
2026-05-08 12:07 44.09528 -69.43783 36875 ft 549 kts 62°
2026-05-08 12:07 44.13013 -69.34316 36856 ft 549 kts 62°
2026-05-08 12:08 44.16491 -69.24837 36852 ft 549 kts 63°
2026-05-08 12:08 44.19955 -69.15364 36851 ft 549 kts 63°
2026-05-08 12:09 44.23414 -69.05875 36846 ft 548 kts 63°
2026-05-08 12:09 44.26862 -68.96381 36845 ft 548 kts 63°
2026-05-08 12:10 44.30257 -68.87000 36842 ft 537 kts 63°
2026-05-08 12:10 44.33667 -68.77545 36837 ft 551 kts 63°
2026-05-08 12:11 44.37095 -68.68010 36830 ft 547 kts 64°
2026-05-08 12:11 44.40484 -68.58549 36827 ft 548 kts 64°
2026-05-08 12:12 44.43891 -68.49004 36825 ft 550 kts 64°
2026-05-08 12:12 44.47298 -68.39425 36820 ft 549 kts 64°
2026-05-08 12:13 44.50697 -68.29835 36821 ft 549 kts 64°
2026-05-08 12:13 44.54078 -68.20265 36813 ft 548 kts 64°
2026-05-08 12:14 44.57453 -68.10675 36808 ft 548 kts 65°
2026-05-08 12:14 44.60820 -68.01073 36799 ft 548 kts 65°
2026-05-08 12:15 44.64178 -67.91467 36770 ft 549 kts 65°
2026-05-08 12:15 44.67533 -67.81830 36782 ft 550 kts 65°
2026-05-08 12:16 44.70871 -67.72211 36793 ft 552 kts 65°
2026-05-08 12:16 44.74229 -67.62500 36812 ft 553 kts 65°
2026-05-08 12:17 44.77589 -67.52746 36814 ft 554 kts 66°
2026-05-08 12:17 44.80945 -67.42969 36812 ft 554 kts 66°
2026-05-08 12:18 44.84295 -67.33188 36796 ft 555 kts 66°
2026-05-08 12:18 44.87647 -67.23379 36808 ft 556 kts 66°
2026-05-08 12:19 44.91358 -67.13821 36807 ft 558 kts 54°
2026-05-08 12:19 44.96193 -67.05236 36804 ft 558 kts 52°
2026-05-08 12:20 45.01050 -66.96675 36798 ft 558 kts 52°
2026-05-08 12:20 45.05093 -66.89567 36799 ft 558 kts 52°
2026-05-08 12:21 45.09954 -66.81012 36777 ft 558 kts 52°
2026-05-08 12:21 45.15601 -66.71046 36769 ft 558 kts 52°
2026-05-08 12:22 45.19661 -66.63860 36743 ft 558 kts 52°
2026-05-08 12:22 45.24510 -66.55250 36754 ft 559 kts 52°
2026-05-08 12:23 45.29361 -66.46612 36744 ft 559 kts 52°
2026-05-08 12:23 45.34171 -66.38006 36748 ft 560 kts 53°
2026-05-08 12:24 45.39009 -66.29320 36748 ft 560 kts 53°
2026-05-08 12:24 45.43843 -66.20614 36747 ft 560 kts 53°
2026-05-08 12:25 45.48672 -66.11890 36749 ft 560 kts 53°
2026-05-08 12:25 45.53488 -66.03163 36746 ft 560 kts 53°
2026-05-08 12:26 45.58294 -65.94425 36742 ft 559 kts 53°
2026-05-08 12:26 45.63094 -65.85672 36712 ft 559 kts 54°
2026-05-08 12:27 45.67883 -65.76912 36707 ft 560 kts 54°
2026-05-08 12:27 45.72680 -65.68111 36719 ft 561 kts 54°
2026-05-08 12:28 45.77479 -65.59277 36707 ft 562 kts 54°
2026-05-08 12:28 45.82279 -65.50415 36726 ft 563 kts 54°
2026-05-08 12:29 45.87080 -65.41523 36734 ft 564 kts 54°
2026-05-08 12:29 45.91875 -65.32613 36733 ft 564 kts 54°
2026-05-08 12:30 45.94277 -65.28139 36834 ft 566 kts 55°
2026-05-08 12:30 45.96671 -65.23673 36789 ft 562 kts 55°
2026-05-08 12:30 46.01400 -65.14833 36705 ft 560 kts 55°
2026-05-08 12:31 46.06153 -65.05915 36697 ft 561 kts 55°
2026-05-08 12:31 46.10903 -64.96975 36697 ft 561 kts 55°
2026-05-08 12:32 46.15641 -64.88031 36700 ft 561 kts 55°
2026-05-08 12:32 46.20367 -64.79081 36698 ft 561 kts 55°
2026-05-08 12:33 46.25089 -64.70110 36693 ft 561 kts 56°
2026-05-08 12:33 46.29801 -64.61127 36701 ft 561 kts 56°
2026-05-08 12:34 46.34510 -64.52123 36703 ft 561 kts 56°
2026-05-08 12:34 46.39178 -64.43168 36695 ft 561 kts 56°
2026-05-08 12:35 46.43874 -64.34129 36700 ft 562 kts 56°
2026-05-08 12:35 46.48568 -64.25066 36707 ft 562 kts 56°
2026-05-08 12:36 46.53261 -64.15975 36707 ft 562 kts 56°
2026-05-08 12:36 46.57945 -64.06872 36699 ft 562 kts 57°
2026-05-08 12:37 46.62628 -63.97740 36708 ft 563 kts 57°
2026-05-08 12:37 46.67312 -63.88577 36714 ft 564 kts 57°
2026-05-08 12:38 46.71963 -63.79450 36720 ft 564 kts 57°
2026-05-08 12:38 46.76637 -63.70245 36718 ft 565 kts 57°
2026-05-08 12:39 46.81306 -63.61020 36720 ft 565 kts 57°
2026-05-08 12:39 46.85961 -63.51795 36718 ft 564 kts 57°
2026-05-08 12:40 46.90612 -63.42543 36729 ft 564 kts 58°
2026-05-08 12:40 46.95258 -63.33273 36721 ft 564 kts 58°
2026-05-08 12:41 46.99886 -63.24005 36727 ft 564 kts 58°
2026-05-08 12:41 47.04508 -63.14719 36704 ft 563 kts 58°
2026-05-08 12:42 47.09123 -63.05417 36724 ft 565 kts 58°
2026-05-08 12:42 47.13739 -62.96080 36727 ft 566 kts 58°
2026-05-08 12:43 47.18333 -62.86758 36726 ft 567 kts 59°
2026-05-08 12:43 47.22950 -62.77355 36737 ft 568 kts 59°
2026-05-08 12:44 47.27575 -62.67906 36745 ft 568 kts 59°
2026-05-08 12:44 47.32192 -62.58440 36743 ft 569 kts 59°
2026-05-08 12:45 47.36800 -62.48961 36744 ft 569 kts 59°
2026-05-08 12:45 47.41398 -62.39468 36742 ft 568 kts 59°
2026-05-08 12:46 47.45985 -62.29968 36731 ft 568 kts 60°
2026-05-08 12:46 47.50566 -62.20444 36713 ft 569 kts 60°
2026-05-08 12:47 47.55154 -62.10871 36728 ft 570 kts 60°
2026-05-08 12:47 47.59746 -62.01260 36740 ft 572 kts 60°
2026-05-08 12:48 47.64333 -61.91624 36742 ft 573 kts 60°
2026-05-08 12:48 47.68924 -61.81946 36724 ft 573 kts 60°
2026-05-08 12:49 47.73482 -61.72304 36730 ft 573 kts 60°
2026-05-08 12:49 47.78056 -61.62594 36729 ft 573 kts 60°
2026-05-08 12:50 47.82619 -61.52873 36732 ft 573 kts 60°
2026-05-08 12:50 47.87170 -61.43143 36736 ft 573 kts 61°
2026-05-08 12:51 47.93982 -61.28511 36706 ft 571 kts 61°
2026-05-08 12:52 47.98502 -61.18761 36724 ft 572 kts 61°
2026-05-08 12:52 48.05283 -61.04065 36731 ft 573 kts 61°
2026-05-08 12:53 48.09803 -60.94225 36754 ft 574 kts 61°
2026-05-08 12:53 48.14286 -60.84431 36738 ft 574 kts 61°
2026-05-08 12:54 48.18798 -60.74540 36731 ft 574 kts 61°
2026-05-08 12:54 48.23297 -60.64639 36740 ft 574 kts 62°
2026-05-08 12:55 48.27783 -60.54730 36737 ft 574 kts 62°
2026-05-08 12:55 48.32262 -60.44803 36732 ft 574 kts 62°
2026-05-08 12:56 48.36699 -60.34930 36710 ft 574 kts 62°
2026-05-08 12:56 48.41155 -60.24983 36725 ft 572 kts 62°
2026-05-08 12:57 48.45593 -60.15034 36726 ft 572 kts 62°
2026-05-08 12:57 48.50021 -60.05073 36725 ft 572 kts 62°
2026-05-08 12:58 48.54449 -59.95074 36726 ft 573 kts 62°
2026-05-08 12:58 48.58869 -59.85058 36727 ft 573 kts 62°
2026-05-08 12:59 48.63279 -59.75026 36735 ft 573 kts 62°
2026-05-08 12:59 48.67660 -59.65025 36720 ft 574 kts 63°
2026-05-08 13:00 48.72059 -59.54943 36720 ft 574 kts 63°
2026-05-08 13:00 48.76457 -59.44826 36725 ft 575 kts 63°
2026-05-08 13:01 48.80849 -59.34685 36722 ft 575 kts 63°
2026-05-08 13:01 48.85236 -59.24519 36704 ft 574 kts 63°
2026-05-08 13:02 48.89605 -59.14356 36741 ft 574 kts 63°
2026-05-08 13:02 48.93933 -59.04248 36736 ft 574 kts 63°
2026-05-08 13:03 48.98299 -58.94013 36738 ft 573 kts 63°
2026-05-08 13:03 49.02625 -58.83834 36728 ft 572 kts 63°
2026-05-08 13:04 49.06905 -58.73724 36717 ft 571 kts 63°
2026-05-08 13:04 49.11203 -58.63532 36711 ft 570 kts 64°
2026-05-08 13:05 49.15489 -58.53329 36705 ft 570 kts 64°
2026-05-08 13:05 49.19761 -58.43123 36704 ft 570 kts 64°
2026-05-08 13:06 49.24026 -58.32892 36703 ft 570 kts 64°
2026-05-08 13:06 49.28274 -58.22662 36707 ft 569 kts 64°
2026-05-08 13:07 49.32508 -58.12430 36697 ft 568 kts 64°
2026-05-08 13:07 49.36726 -58.02197 36704 ft 567 kts 64°
2026-05-08 13:08 49.40902 -57.92023 36695 ft 567 kts 64°
2026-05-08 13:08 49.45097 -57.81765 36665 ft 567 kts 64°
2026-05-08 13:09 49.49285 -57.71485 36682 ft 568 kts 64°
2026-05-08 13:09 49.53473 -57.61161 36701 ft 569 kts 64°
2026-05-08 13:10 49.57647 -57.50834 36687 ft 570 kts 64°
2026-05-08 13:10 49.61831 -57.40445 36677 ft 570 kts 64°
2026-05-08 13:11 49.65986 -57.30083 36682 ft 570 kts 64°
2026-05-08 13:11 49.69457 -57.21398 36657 ft 570 kts 64°
2026-05-08 13:12 49.74306 -57.09215 36611 ft 570 kts 64°
2026-05-08 13:12 49.77760 -57.00502 36657 ft 570 kts 64°
2026-05-08 13:13 49.81877 -56.90079 36667 ft 571 kts 64°
2026-05-08 13:13 49.86029 -56.79526 36654 ft 571 kts 64°
2026-05-08 13:14 49.90134 -56.69049 36669 ft 572 kts 64°
2026-05-08 13:14 49.94272 -56.58446 36663 ft 572 kts 64°
2026-05-08 13:15 49.98394 -56.47843 36657 ft 572 kts 64°
2026-05-08 13:15 50.02477 -56.37297 36655 ft 573 kts 64°
2026-05-08 13:16 50.06586 -56.26636 36664 ft 574 kts 64°
2026-05-08 13:16 50.10698 -56.15924 36695 ft 576 kts 64°
2026-05-08 13:17 50.14782 -56.05248 36686 ft 576 kts 64°
2026-05-08 13:17 50.18870 -55.94518 36657 ft 574 kts 64°
2026-05-08 13:18 50.22948 -55.83766 36653 ft 572 kts 64°
2026-05-08 13:18 50.26980 -55.73090 36652 ft 572 kts 64°
2026-05-08 13:19 50.30993 -55.62419 36650 ft 571 kts 64°
2026-05-08 13:19 50.35014 -55.51684 36654 ft 571 kts 64°
2026-05-08 13:20 50.39042 -55.40884 36670 ft 573 kts 65°
2026-05-08 13:20 50.43039 -55.30127 36676 ft 573 kts 65°
2026-05-08 13:21 50.47052 -55.19279 36671 ft 573 kts 65°
2026-05-08 13:21 50.51024 -55.08498 36675 ft 573 kts 65°
2026-05-08 13:22 50.55009 -54.97634 36683 ft 573 kts 65°
2026-05-08 13:22 50.58989 -54.86739 36683 ft 572 kts 65°
2026-05-08 13:23 50.62942 -54.75872 36681 ft 572 kts 65°
2026-05-08 13:23 50.66860 -54.65054 36683 ft 572 kts 65°
2026-05-08 13:24 50.70812 -54.54095 36677 ft 572 kts 65°
2026-05-08 13:24 50.74720 -54.43215 36697 ft 572 kts 65°
2026-05-08 13:25 50.78648 -54.32232 36693 ft 571 kts 65°
2026-05-08 13:25 50.82524 -54.21345 36690 ft 571 kts 65°
2026-05-08 13:26 50.86421 -54.10351 36691 ft 570 kts 65°
2026-05-08 13:26 50.90284 -53.99411 36690 ft 570 kts 65°
2026-05-08 13:27 50.94150 -53.88424 36685 ft 569 kts 65°
2026-05-08 13:27 50.97992 -53.77478 36680 ft 569 kts 65°
2026-05-08 13:28 51.01837 -53.66482 36688 ft 568 kts 65°
2026-05-08 13:28 51.05638 -53.55565 36637 ft 567 kts 66°
2026-05-08 13:29 51.09443 -53.44591 36710 ft 564 kts 66°
2026-05-08 13:29 51.13205 -53.33686 36694 ft 563 kts 66°
2026-05-08 13:30 51.16811 -53.22699 36698 ft 559 kts 69°
2026-05-08 13:30 51.19916 -53.11367 36688 ft 555 kts 72°
2026-05-08 13:31 51.23039 -53.00059 36691 ft 556 kts 71°
2026-05-08 13:31 51.26136 -52.88850 36678 ft 555 kts 72°
2026-05-08 13:32 51.29223 -52.77518 36692 ft 555 kts 72°
2026-05-08 13:32 51.32278 -52.66214 36703 ft 555 kts 72°
2026-05-08 13:33 51.35338 -52.54837 36708 ft 556 kts 72°
2026-05-08 13:33 51.38372 -52.43505 36713 ft 555 kts 71°
2026-05-08 13:34 51.39895 -52.37790 36860 ft 560 kts 71°
2026-05-08 13:34 51.41429 -52.32027 37284 ft 559 kts 71°
2026-05-08 13:34 51.42952 -52.26290 37728 ft 559 kts 71°
2026-05-08 13:34 51.44458 -52.20603 38140 ft 558 kts 71°
2026-05-08 13:35 51.45977 -52.14852 38516 ft 558 kts 71°
2026-05-08 13:35 51.47497 -52.09076 38681 ft 562 kts 71°
2026-05-08 13:35 51.50488 -51.97688 38730 ft 553 kts 71°
2026-05-08 13:36 51.53464 -51.86280 38725 ft 556 kts 71°
2026-05-08 13:36 51.56449 -51.74791 38735 ft 556 kts 71°
2026-05-08 13:37 51.59424 -51.63282 38736 ft 556 kts 71°
2026-05-08 13:37 51.62371 -51.51821 38727 ft 556 kts 71°
2026-05-08 13:38 51.65311 -51.40326 38730 ft 555 kts 70°
2026-05-08 13:38 51.68223 -51.28892 38760 ft 553 kts 70°
2026-05-08 13:39 51.71133 -51.17400 38760 ft 552 kts 71°
2026-05-08 13:39 51.74017 -51.05953 38759 ft 552 kts 71°
2026-05-08 13:40 51.76892 -50.94483 38783 ft 550 kts 70°
2026-05-08 13:40 51.79738 -50.83069 38775 ft 549 kts 71°
2026-05-08 13:41 51.82582 -50.71603 38770 ft 549 kts 71°
2026-05-08 13:41 51.85413 -50.60132 38766 ft 548 kts 71°
2026-05-08 13:42 51.88215 -50.48719 38782 ft 548 kts 71°
2026-05-08 13:42 51.91026 -50.37209 38783 ft 548 kts 71°
2026-05-08 13:43 51.93805 -50.25774 38801 ft 546 kts 71°
2026-05-08 13:43 51.96574 -50.14318 38794 ft 545 kts 71°
2026-05-08 13:44 51.99318 -50.02920 38785 ft 546 kts 71°
2026-05-08 13:44 52.02119 -49.91436 38793 ft 547 kts 70°
2026-05-08 13:45 52.04992 -49.80029 38799 ft 547 kts 70°
2026-05-08 13:45 52.07877 -49.68565 38820 ft 548 kts 70°
2026-05-08 13:46 52.10744 -49.57099 38818 ft 548 kts 69°
2026-05-08 13:46 52.13596 -49.45624 38829 ft 549 kts 69°
2026-05-08 13:47 52.16445 -49.34073 38838 ft 549 kts 70°
2026-05-08 13:47 52.19275 -49.22517 38823 ft 549 kts 70°
2026-05-08 13:48 52.22090 -49.10963 38868 ft 547 kts 69°
2026-05-08 13:48 52.24874 -48.99474 38861 ft 546 kts 69°
2026-05-08 13:49 52.27661 -48.87911 38859 ft 546 kts 69°
2026-05-08 13:49 52.30435 -48.76341 38870 ft 545 kts 69°
2026-05-08 13:50 52.33172 -48.64863 38860 ft 545 kts 69°
2026-05-08 13:50 52.35908 -48.53334 38865 ft 544 kts 69°
2026-05-08 13:51 52.38646 -48.41731 38863 ft 545 kts 69°
2026-05-08 13:51 52.41352 -48.30201 38885 ft 545 kts 70°
2026-05-08 13:52 52.44068 -48.18562 38890 ft 545 kts 69°
2026-05-08 13:52 52.46757 -48.06982 38867 ft 546 kts 69°
2026-05-08 13:53 52.49447 -47.95335 38922 ft 544 kts 69°
2026-05-08 13:53 52.52121 -47.83690 38928 ft 543 kts 69°
2026-05-08 13:54 52.54761 -47.72128 38930 ft 543 kts 69°
2026-05-08 13:54 52.57405 -47.60487 38925 ft 542 kts 69°
2026-05-08 13:55 52.60018 -47.48919 38921 ft 542 kts 69°
2026-05-08 13:56 52.63941 -47.31434 38935 ft 542 kts 69°
2026-05-08 13:56 52.66522 -47.19844 38944 ft 542 kts 69°
2026-05-08 13:57 52.69118 -47.08127 38958 ft 543 kts 69°
2026-05-08 13:57 52.71685 -46.96474 38972 ft 543 kts 69°
2026-05-08 13:58 52.74258 -46.84729 38999 ft 543 kts 68°
2026-05-08 13:58 52.76813 -46.72999 39020 ft 542 kts 68°
2026-05-08 13:59 52.79351 -46.61272 39034 ft 540 kts 68°
2026-05-08 13:59 52.81858 -46.49633 39021 ft 539 kts 68°
2026-05-08 14:00 52.84364 -46.37931 39035 ft 538 kts 68°
2026-05-08 14:00 52.86832 -46.26336 39023 ft 537 kts 68°
2026-05-08 14:01 52.89307 -46.14642 39041 ft 536 kts 68°
2026-05-08 14:01 52.91747 -46.03046 39042 ft 535 kts 68°
2026-05-08 14:02 52.94191 -45.91367 39052 ft 534 kts 68°
2026-05-08 14:02 52.96208 -45.81675 39058 ft 534 kts 68°
2026-05-08 14:03 52.98624 -45.70003 39055 ft 535 kts 68°
2026-05-08 14:03 53.01016 -45.58377 39086 ft 533 kts 68°
2026-05-08 14:04 53.03403 -45.46710 39079 ft 532 kts 68°
2026-05-08 14:04 53.05782 -45.35014 39085 ft 532 kts 68°
2026-05-08 14:05 53.08129 -45.23408 39086 ft 531 kts 68°
2026-05-08 14:05 53.10472 -45.11750 39101 ft 530 kts 68°
2026-05-08 14:06 53.12785 -45.00169 39104 ft 529 kts 68°
2026-05-08 14:06 53.15102 -44.88506 39109 ft 528 kts 68°
2026-05-08 14:07 53.17388 -44.76927 39116 ft 528 kts 68°
2026-05-08 14:07 53.19675 -44.65270 39135 ft 527 kts 68°
2026-05-08 14:08 53.21944 -44.53637 39134 ft 526 kts 68°
2026-05-08 14:08 53.24183 -44.42092 39141 ft 525 kts 68°
2026-05-08 14:09 53.26415 -44.30508 39154 ft 523 kts 68°
2026-05-08 14:09 53.28634 -44.18925 39167 ft 522 kts 68°
2026-05-08 14:10 53.30821 -44.07438 39176 ft 520 kts 68°
2026-05-08 14:10 53.33005 -43.95896 39174 ft 518 kts 68°
2026-05-08 14:11 53.35158 -43.84449 39160 ft 517 kts 68°
2026-05-08 14:11 53.37306 -43.72957 39163 ft 516 kts 68°
2026-05-08 14:12 53.39439 -43.61472 39175 ft 515 kts 68°
2026-05-08 14:12 53.41560 -43.49990 39173 ft 514 kts 68°
2026-05-08 14:13 53.43657 -43.38563 39173 ft 514 kts 68°
2026-05-08 14:13 53.45740 -43.27141 39185 ft 513 kts 68°
2026-05-08 14:14 53.47811 -43.15712 39203 ft 514 kts 68°
2026-05-08 14:14 53.49883 -43.04206 39197 ft 513 kts 68°
2026-05-08 14:15 53.51942 -42.92703 39219 ft 514 kts 68°
2026-05-08 14:15 53.53981 -42.81239 39219 ft 514 kts 68°
2026-05-08 14:16 53.56024 -42.69674 39228 ft 514 kts 68°
2026-05-08 14:16 53.58039 -42.58195 39253 ft 513 kts 68°
2026-05-08 14:17 53.60051 -42.46663 39254 ft 512 kts 68°
2026-05-08 14:17 53.62047 -42.35142 39252 ft 511 kts 68°
2026-05-08 14:18 53.64019 -42.23692 39253 ft 510 kts 68°
2026-05-08 14:18 53.65986 -42.12193 39252 ft 509 kts 68°
2026-05-08 14:19 53.67924 -42.00790 39270 ft 508 kts 68°
2026-05-08 14:19 53.69858 -41.89335 39295 ft 505 kts 68°
2026-05-08 14:20 53.71771 -41.77928 39291 ft 503 kts 68°
2026-05-08 14:20 53.73661 -41.66591 39289 ft 502 kts 68°
2026-05-08 14:21 53.75548 -41.55196 39276 ft 501 kts 68°
2026-05-08 14:21 53.77407 -41.43893 39274 ft 500 kts 68°
2026-05-08 14:22 53.79250 -41.32614 39267 ft 499 kts 68°
2026-05-08 14:22 53.81087 -41.21294 39271 ft 498 kts 68°
2026-05-08 14:23 53.82914 -41.09966 39266 ft 497 kts 68°
2026-05-08 14:23 53.84720 -40.98683 39277 ft 498 kts 67°
2026-05-08 14:24 53.86514 -40.87407 39286 ft 499 kts 68°
2026-05-08 14:24 53.88315 -40.76013 39300 ft 499 kts 68°
2026-05-08 14:25 53.90100 -40.64640 39307 ft 500 kts 68°
2026-05-08 14:25 53.91878 -40.53225 39352 ft 500 kts 68°
2026-05-08 14:26 53.93649 -40.41793 39345 ft 499 kts 68°
2026-05-08 14:26 53.95402 -40.30439 39342 ft 499 kts 68°
2026-05-08 14:27 53.97157 -40.19015 39341 ft 498 kts 68°
2026-05-08 14:27 53.98886 -40.07679 39336 ft 498 kts 68°
2026-05-08 14:28 54.00564 -39.96232 39349 ft 499 kts 69°
2026-05-08 14:28 54.02120 -39.84779 39337 ft 498 kts 68°
2026-05-08 14:29 54.03788 -39.73314 39353 ft 498 kts 68°
2026-05-08 14:29 54.05426 -39.61909 39353 ft 498 kts 68°
2026-05-08 14:30 54.07056 -39.50411 39360 ft 499 kts 69°
2026-05-08 14:30 54.08660 -39.38964 39376 ft 499 kts 68°
2026-05-08 14:31 54.10255 -39.27454 39409 ft 497 kts 68°
2026-05-08 14:31 54.11831 -39.15975 39396 ft 496 kts 68°
2026-05-08 14:32 54.14164 -38.98823 39387 ft 494 kts 68°
2026-05-08 14:32 54.15697 -38.87447 39377 ft 493 kts 68°
2026-05-08 14:33 54.17223 -38.76034 39391 ft 492 kts 68°
2026-05-08 14:33 54.18726 -38.64705 39393 ft 491 kts 68°
2026-05-08 14:34 54.20229 -38.53290 39387 ft 490 kts 68°
2026-05-08 14:34 54.21713 -38.41926 39386 ft 490 kts 68°
2026-05-08 14:35 54.23181 -38.30591 39409 ft 490 kts 68°
2026-05-08 14:35 54.24647 -38.19184 39414 ft 490 kts 68°
2026-05-08 14:36 54.26090 -38.07866 39395 ft 490 kts 68°
2026-05-08 14:36 54.27532 -37.96462 39433 ft 489 kts 68°
2026-05-08 14:37 54.28961 -37.85056 39425 ft 489 kts 68°
2026-05-08 14:37 54.30367 -37.73748 39451 ft 488 kts 68°
2026-05-08 14:38 54.31776 -37.62339 39424 ft 488 kts 68°
2026-05-08 14:38 54.33170 -37.50944 39428 ft 488 kts 68°
2026-05-08 14:39 54.34546 -37.39598 39429 ft 488 kts 68°
2026-05-08 14:39 54.35921 -37.28170 39430 ft 489 kts 68°
2026-05-08 14:40 54.37284 -37.16745 39443 ft 490 kts 68°
2026-05-08 14:40 54.38641 -37.05281 39437 ft 491 kts 68°
2026-05-08 14:41 54.39983 -36.93831 39443 ft 492 kts 68°
2026-05-08 14:41 54.41327 -36.82262 39454 ft 493 kts 68°
2026-05-08 14:42 54.42652 -36.70755 39466 ft 493 kts 69°
2026-05-08 14:42 54.43973 -36.59173 39478 ft 493 kts 69°
2026-05-08 14:43 54.45273 -36.47677 39476 ft 492 kts 69°
2026-05-08 14:43 54.46570 -36.36107 39467 ft 491 kts 69°
2026-05-08 14:44 54.47852 -36.24565 39462 ft 491 kts 69°
2026-05-08 14:44 54.49115 -36.13084 39465 ft 490 kts 69°
2026-05-08 14:45 54.50375 -36.01538 39463 ft 491 kts 70°
2026-05-08 14:45 54.51618 -35.90029 39464 ft 491 kts 70°
2026-05-08 14:46 54.52857 -35.78450 39466 ft 491 kts 70°
2026-05-08 14:46 54.54088 -35.66839 39472 ft 492 kts 70°
2026-05-08 14:47 54.55299 -35.55301 39478 ft 492 kts 70°
2026-05-08 14:47 54.56510 -35.43663 39463 ft 494 kts 71°
2026-05-08 14:48 54.57711 -35.31985 39474 ft 495 kts 72°
2026-05-08 14:48 54.58904 -35.20276 39491 ft 496 kts 72°
2026-05-08 14:49 54.60080 -35.08615 39488 ft 496 kts 72°
2026-05-08 14:49 54.61248 -34.96912 39494 ft 497 kts 72°
2026-05-08 14:50 54.62216 -34.87125 39509 ft 496 kts 72°
2026-05-08 14:50 54.63369 -34.75362 39519 ft 497 kts 72°
2026-05-08 14:51 54.64510 -34.63583 39522 ft 496 kts 72°
2026-05-08 14:51 54.65633 -34.51879 39519 ft 496 kts 72°
2026-05-08 14:52 54.67311 -34.34157 39526 ft 496 kts 73°
2026-05-08 14:53 54.68405 -34.22444 39502 ft 497 kts 73°
2026-05-08 14:53 54.69497 -34.10619 39509 ft 497 kts 73°
2026-05-08 14:54 54.70570 -33.98865 39512 ft 497 kts 73°
2026-05-08 14:54 54.71640 -33.87019 39518 ft 496 kts 73°
2026-05-08 14:55 54.72688 -33.75285 39542 ft 496 kts 74°
2026-05-08 14:55 54.73733 -33.63442 39521 ft 496 kts 74°
2026-05-08 14:56 54.74758 -33.51696 39516 ft 495 kts 74°
2026-05-08 14:56 54.75776 -33.39890 39528 ft 494 kts 74°
2026-05-08 14:57 54.76776 -33.28161 39519 ft 494 kts 74°
2026-05-08 14:57 54.77772 -33.16353 39554 ft 494 kts 75°
2026-05-08 14:58 54.78747 -33.04627 39539 ft 493 kts 75°
2026-05-08 14:58 54.79712 -32.92879 39536 ft 491 kts 75°
2026-05-08 14:59 54.80660 -32.81207 39527 ft 490 kts 75°
2026-05-08 14:59 54.82061 -32.63691 39543 ft 489 kts 75°
2026-05-08 15:00 54.82985 -32.51955 39551 ft 488 kts 75°
2026-05-08 15:00 54.83887 -32.40353 39544 ft 487 kts 75°
2026-05-08 15:01 54.84780 -32.28722 39531 ft 486 kts 76°
2026-05-08 15:01 54.85656 -32.17149 39519 ft 485 kts 76°
2026-05-08 15:02 54.86525 -32.05529 39512 ft 484 kts 76°
2026-05-08 15:02 54.87378 -31.93983 39511 ft 484 kts 76°
2026-05-08 15:03 54.88219 -31.82418 39507 ft 483 kts 76°
2026-05-08 15:03 54.89052 -31.70835 39501 ft 484 kts 76°
2026-05-08 15:04 54.89875 -31.59213 39506 ft 484 kts 76°
2026-05-08 15:04 54.90690 -31.47553 39511 ft 485 kts 76°
2026-05-08 15:05 54.91491 -31.35930 39517 ft 486 kts 77°
2026-05-08 15:05 54.92280 -31.24306 39533 ft 486 kts 77°
2026-05-08 15:06 54.93060 -31.12648 39527 ft 486 kts 77°
2026-05-08 15:06 54.93830 -31.00962 39525 ft 486 kts 77°
2026-05-08 15:07 54.94588 -30.89293 39523 ft 486 kts 77°
2026-05-08 15:07 54.95336 -30.77592 39537 ft 485 kts 77°
2026-05-08 15:08 54.95948 -30.67879 39524 ft 484 kts 77°
2026-05-08 15:08 54.96791 -30.54308 39517 ft 484 kts 77°
2026-05-08 15:09 54.97500 -30.42716 39513 ft 483 kts 77°
2026-05-08 15:09 54.98208 -30.31052 39511 ft 483 kts 77°
2026-05-08 15:10 54.98907 -30.19400 39520 ft 483 kts 77°
2026-05-08 15:10 54.99592 -30.07808 39516 ft 483 kts 77°
2026-05-08 15:11 55.00191 -29.96107 39512 ft 485 kts 79°
2026-05-08 15:11 55.00574 -29.84428 39511 ft 484 kts 79°
2026-05-08 15:12 55.01054 -29.72709 39509 ft 484 kts 79°
2026-05-08 15:12 55.01526 -29.60959 39520 ft 485 kts 79°
2026-05-08 15:13 55.01976 -29.49257 39516 ft 485 kts 79°
2026-05-08 15:13 55.02409 -29.37562 39512 ft 485 kts 79°
2026-05-08 15:14 55.02827 -29.25806 39504 ft 485 kts 80°
2026-05-08 15:14 55.03232 -29.14055 39508 ft 485 kts 80°
2026-05-08 15:15 55.03624 -29.02351 39506 ft 485 kts 80°
2026-05-08 15:15 55.04006 -28.90641 39504 ft 485 kts 80°
2026-05-08 15:16 55.04377 -28.78880 39498 ft 485 kts 80°
2026-05-08 15:16 55.04738 -28.67107 39498 ft 485 kts 80°
2026-05-08 15:17 55.05087 -28.55330 39504 ft 486 kts 80°
2026-05-08 15:17 55.05423 -28.43609 39496 ft 486 kts 81°
2026-05-08 15:18 55.05749 -28.31831 39493 ft 486 kts 81°
2026-05-08 15:18 55.06063 -28.20093 39487 ft 486 kts 81°
2026-05-08 15:19 55.06365 -28.08354 39484 ft 486 kts 81°
2026-05-08 15:19 55.06658 -27.96563 39486 ft 486 kts 81°
2026-05-08 15:20 55.06940 -27.84759 39494 ft 487 kts 81°
2026-05-08 15:20 55.07209 -27.72991 39479 ft 487 kts 81°
2026-05-08 15:21 55.07468 -27.61151 39476 ft 487 kts 81°
2026-05-08 15:21 55.07714 -27.49387 39475 ft 487 kts 81°
2026-05-08 15:22 55.07950 -27.37534 39480 ft 488 kts 81°
2026-05-08 15:22 55.08175 -27.25700 39495 ft 488 kts 82°
2026-05-08 15:23 55.08387 -27.13897 39474 ft 488 kts 82°
2026-05-08 15:23 55.08589 -27.02038 39465 ft 487 kts 82°
2026-05-08 15:24 55.08779 -26.90266 39461 ft 487 kts 82°
2026-05-08 15:24 55.08958 -26.78418 39459 ft 487 kts 82°
2026-05-08 15:25 55.09125 -26.66565 39491 ft 487 kts 82°
2026-05-08 15:25 55.09280 -26.54784 39458 ft 487 kts 82°
2026-05-08 15:26 55.09425 -26.42932 39456 ft 487 kts 82°
2026-05-08 15:26 55.09557 -26.31162 39454 ft 487 kts 82°
2026-05-08 15:27 55.09679 -26.19311 39451 ft 487 kts 82°
2026-05-08 15:27 55.09788 -26.07537 39477 ft 487 kts 83°
2026-05-08 15:28 55.09886 -25.95698 39464 ft 486 kts 83°
2026-05-08 15:28 55.09973 -25.83866 39455 ft 485 kts 83°
2026-05-08 15:29 55.10048 -25.72139 39446 ft 485 kts 83°
2026-05-08 15:29 55.10111 -25.60421 39441 ft 484 kts 83°
2026-05-08 15:30 55.10164 -25.48650 39433 ft 483 kts 83°
2026-05-08 15:30 55.10205 -25.36872 39442 ft 483 kts 84°
2026-05-08 15:31 55.10235 -25.25196 39429 ft 483 kts 84°
2026-05-08 15:31 55.10254 -25.13470 39419 ft 482 kts 84°
2026-05-08 15:32 55.10261 -25.01760 39417 ft 482 kts 84°
2026-05-08 15:32 55.10257 -24.90079 39419 ft 482 kts 84°
2026-05-08 15:33 55.10242 -24.78315 39423 ft 483 kts 84°
2026-05-08 15:33 55.10216 -24.66628 39426 ft 483 kts 85°
2026-05-08 15:34 55.10192 -24.58863 39427 ft 483 kts 85°